Location: Lawrence Hall of Science
(37.8785°N, 122.2415°W)
Time: 05:58:29
(UTC-07:00)

ARGOS - Visible Passes

Search period start: 26 May 2017 00:00
Search period end: 05 June 2017 00:00
Orbit: 821 x 834 km, 98.6° (Epoch: 25 May)

Date Brightness Start Highest point End Pass type
(mag) Time Alt. Az. Time Alt. Az. Time Alt. Az.
26 May 3.9 21:40:03 19° SE 21:43:19 38° ENE 21:48:17 10° N visible
26 May 4.8 23:21:33 20° SW 23:23:36 25° W 23:28:03 10° NW visible
27 May 4.4 21:21:12 13° ESE 21:24:55 26° ENE 21:29:21 10° NNE visible
27 May 4.2 23:02:43 26° SW 23:04:55 38° W 23:09:58 10° NNW visible
28 May 4.8 21:03:00 10° ESE 21:06:34 18° ENE 21:10:09 10° NNE visible
28 May 3.6 22:43:52 31° SSW 22:46:18 57° W 22:51:39 10° NNW visible
29 May 3.1 22:25:02 31° S 22:27:44 84° WSW 22:33:12 10° NNW visible
30 May 3.2 22:06:12 26° SSE 22:09:13 66° ENE 22:14:36 10° N visible
30 May 5.4 23:47:42 11° WSW 23:49:53 14° W 23:52:41 10° WNW visible
31 May 3.7 21:47:21 20° SE 21:50:44 44° ENE 21:55:52 10° N visible
31 May 5.0 23:28:52 17° SW 23:31:08 22° W 23:35:14 10° NW visible
01 Jun 4.2 21:28:31 14° ESE 21:32:19 31° ENE 21:37:00 10° N visible
01 Jun 4.5 23:10:02 23° SW 23:12:26 32° W 23:17:16 10° NW visible
02 Jun 4.7 21:09:58 10° ESE 21:13:56 21° ENE 21:17:56 10° NNE visible
02 Jun 3.9 22:51:12 27° SSW 22:53:48 48° W 22:59:03 10° NNW visible
03 Jun 5.1 20:52:45 10° E 20:55:38 15° ENE 20:58:30 10° NNE visible
03 Jun 3.3 22:32:22 29° S 22:35:12 72° WSW 22:40:39 10° NNW visible
04 Jun 3.1 22:13:33 26° SSE 22:16:40 78° ENE 22:22:06 10° N visible
04 Jun 5.6 23:55:35 10° WSW 23:57:26 12° W 23:59:19 10° WNW visible
